Weather History for Dublin, VA

Change the Weather History Date:

Sunday, July 21, 2013

  Actual Average (KBCB) Record (KBCB)
Temperature  
Mean Temperature 74 °F 71 °F  
Max Temperature 82 °F 82 °F 94 °F (1953)
Min Temperature 66 °F 60 °F 47 °F (1968)
Degree Days  
Heating Degree Days 0 0  
Month to date heating degree days 0  
Since 1 June heating degree days 38  
Since 1 July heating degree days 0  
Cooling Degree Days 9 6  
Month to date cooling degree days 132  
Year to date cooling degree days 280  
Since 1 June cooling degree days 251  
Growing Degree Days 24 (Base 50)    
Moisture  
Dew Point 70 °F    
Average Humidity 91    
Maximum Humidity 100    
Minimum Humidity 66    
Precipitation  
Precipitation 0.05 in 0.13 in 1.34 in (1992)
Month to date precipitation 2.89  
Year to date precipitation 24.23  
Snow  
Snow 0.00 in - - ()
Month to date snowfall  
Since 1 June snowfall  
Since 1 July snowfall  
Snow Depth -    
Sea Level Pressure  
Sea Level Pressure 30.06 in    
Wind  
Wind Speed 3 mph (SW)    
Max Wind Speed 9 mph    
Max Gust Speed -    
Visibility 9 miles    
Events Rain , Thunderstorm    
T = Trace of Precipitation, MM = Missing Value Source: NWS Daily Summary

Daily Weather History Graph

Daily Weather History Graph

Search for Another Location

Airport:

Trip Planner

Search our weather history database for the weather conditions in past years. The results will help you decide how hot, cold, wet, or windy it might be!

Date:

Astronomy

Jul. 21, 2013 Rise Set
Actual Time 6:19 AM EDT 8:38 PM EDT
Civil Twilight 5:49 AM EDT 9:08 PM EDT
Nautical Twilight 5:12 AM EDT 9:44 PM EDT
Astronomical Twilight 4:32 AM EDT 10:24 PM EDT
Moon 7:36 PM EDT (7/21) 5:02 AM EDT (7/21)
Length of Visible Light 15h 18m
Length of Day
14h 19m
Waxing Gibbous, 98% of the Moon is Illuminated
Jul 21
Waxing Gibbous
Jul 22
Full
Jul 29
Last Quarter
Aug 6
New
Aug 14
First Quarter

Hourly Weather History & Observations

Time (EDT) Temp. Heat Index Dew Point Humidity Pressure Visibility Wind Dir Wind Speed Gust Speed Precip Events Conditions
12:15 AM 69.8 °F - 69.8 °F 100% 30.06 in 10.0 mi SW 5.8 mph - N/A   Clear
12:35 AM 69.8 °F - 69.8 °F 100% 30.06 in 10.0 mi WSW 5.8 mph - N/A   Clear
12:55 AM 69.8 °F - 69.8 °F 100% 30.07 in 10.0 mi WSW 4.6 mph - N/A   Clear
1:15 AM 69.8 °F - 69.8 °F 100% 30.06 in 10.0 mi Calm Calm - N/A   Clear
1:35 AM 69.8 °F - 69.8 °F 100% 30.06 in 10.0 mi Calm Calm - N/A   Clear
1:55 AM 68.0 °F - 68.0 °F 100% 30.06 in 10.0 mi SW 5.8 mph - N/A   Clear
2:15 AM 68.0 °F - 68.0 °F 100% 30.05 in 10.0 mi WSW 4.6 mph - N/A   Clear
2:35 AM 68.0 °F - 68.0 °F 100% 30.05 in 7.0 mi NW 3.5 mph - N/A   Clear
2:55 AM 66.2 °F - 66.2 °F 100% 30.05 in 5.0 mi West 3.5 mph - N/A   Clear
3:15 AM 66.2 °F - 66.2 °F 100% 30.04 in 7.0 mi Calm Calm - N/A   Clear
3:35 AM 66.2 °F - 66.2 °F 100% 30.05 in 7.0 mi Calm Calm - N/A   Clear
3:55 AM 68.0 °F - 68.0 °F 100% 30.04 in 10.0 mi Calm Calm - N/A   Clear
4:15 AM 68.0 °F - 68.0 °F 100% 30.05 in 10.0 mi Calm Calm - N/A   Clear
4:35 AM 68.0 °F - 68.0 °F 100% 30.04 in 10.0 mi SW 4.6 mph - N/A   Clear
4:55 AM 69.8 °F - 69.8 °F 100% 30.05 in 10.0 mi WSW 4.6 mph - N/A   Clear
5:15 AM 68.0 °F - 68.0 °F 100% 30.05 in 7.0 mi SSW 3.5 mph - N/A   Clear
5:35 AM 66.2 °F - 66.2 °F 100% 30.06 in 7.0 mi Calm Calm - N/A   Clear
5:55 AM 66.2 °F - 66.2 °F 100% 30.06 in 7.0 mi Calm Calm - N/A   Clear
6:15 AM 66.2 °F - 66.2 °F 100% 30.06 in 5.0 mi Calm Calm - N/A   Clear
6:35 AM 66.2 °F - 66.2 °F 100% 30.07 in 7.0 mi Calm Calm - N/A   Clear
6:55 AM 68.0 °F - 68.0 °F 100% 30.07 in 5.0 mi SSW 3.5 mph - N/A   Clear
7:15 AM 69.8 °F - 69.8 °F 100% 30.07 in 7.0 mi WSW 4.6 mph - N/A   Clear
7:35 AM 69.8 °F - 69.8 °F 100% 30.07 in 7.0 mi Calm Calm - N/A   Clear
7:55 AM 69.8 °F - 69.8 °F 100% 30.08 in 7.0 mi Calm Calm - N/A   Clear
8:15 AM 71.6 °F - 71.6 °F 100% 30.08 in 7.0 mi SW 4.6 mph - N/A   Clear
8:35 AM 73.4 °F - 71.6 °F 94% 30.08 in 10.0 mi West 5.8 mph - N/A   Clear
8:55 AM 73.4 °F - 71.6 °F 94% 30.08 in 10.0 mi Calm Calm - N/A   Clear
9:15 AM 75.2 °F - 71.6 °F 89% 30.08 in 10.0 mi SW 3.5 mph - N/A   Clear
9:35 AM 75.2 °F - 71.6 °F 89% 30.09 in 10.0 mi SSW 4.6 mph - N/A   Clear
9:55 AM 75.2 °F - 71.6 °F 89% 30.09 in 10.0 mi SSW 4.6 mph - N/A Thunderstorm Clear
10:15 AM 78.8 °F - 73.4 °F 83% 30.09 in 10.0 mi WSW 5.8 mph - N/A   Clear
10:35 AM 80.6 °F 84.6 °F 71.6 °F 74% 30.09 in 10.0 mi SW 5.8 mph - N/A   Scattered Clouds
10:55 AM 80.6 °F 84.6 °F 71.6 °F 74% 30.09 in 10.0 mi SSW 5.8 mph - N/A   Scattered Clouds
11:15 AM 80.6 °F 84.6 °F 71.6 °F 74% 30.09 in 10.0 mi SW 8.1 mph - N/A   Scattered Clouds
11:35 AM 78.8 °F - 71.6 °F 78% 30.10 in 7.0 mi WSW 9.2 mph - N/A   Clear
11:55 AM 78.8 °F - 71.6 °F 78% 30.09 in 7.0 mi SW 9.2 mph - N/A   Scattered Clouds
12:15 PM 80.6 °F 84.6 °F 71.6 °F 74% 30.09 in 7.0 mi SW 4.6 mph - N/A   Clear
12:35 PM 82.4 °F 87.2 °F 71.6 °F 70% 30.09 in 10.0 mi WSW 3.5 mph - N/A Thunderstorm Clear
12:55 PM 82.4 °F 86.3 °F 69.8 °F 66% 30.08 in 10.0 mi Calm Calm - N/A Thunderstorm Thunderstorm
1:55 PM 77.0 °F - 68.0 °F 74% 30.07 in 10.0 mi NNE 5.8 mph - N/A   Scattered Clouds
2:15 PM 80.6 °F 83.9 °F 69.8 °F 70% 30.05 in 10.0 mi ENE 4.6 mph - N/A   Scattered Clouds
2:35 PM 80.6 °F 83.9 °F 69.8 °F 70% 30.05 in 10.0 mi North 5.8 mph - N/A   Clear
2:55 PM 78.8 °F - 69.8 °F 74% 30.03 in 10.0 mi North 5.8 mph - N/A   Clear
3:15 PM - - - N/A% 30.07 in - West 6.9 mph - 0.03 in Thunderstorm Thunderstorm
3:35 PM 71.6 °F - 71.6 °F 100% 30.04 in 7.0 mi SSE 4.6 mph - 0.05 in Rain , Thunderstorm Thunderstorms and Rain
3:55 PM 73.4 °F - 71.6 °F 94% 30.04 in 10.0 mi Calm Calm - N/A Thunderstorm Scattered Clouds
4:15 PM 77.0 °F - 73.4 °F 89% 30.04 in 10.0 mi West 4.6 mph - N/A   Clear
4:35 PM 77.0 °F - 71.6 °F 83% 30.03 in 10.0 mi Calm Calm - N/A Thunderstorm Clear
4:55 PM 77.0 °F - 69.8 °F 78% 30.04 in 10.0 mi SW 4.6 mph - N/A   Clear
5:15 PM 78.8 °F - 71.6 °F 78% 30.04 in 10.0 mi Calm Calm - N/A   Clear
5:35 PM 78.8 °F - 71.6 °F 78% 30.04 in 10.0 mi Calm Calm - N/A Thunderstorm Thunderstorm
5:55 PM 78.8 °F - 71.6 °F 78% 30.03 in 10.0 mi Calm Calm - N/A   Clear
6:15 PM 78.8 °F - 69.8 °F 74% 30.04 in 10.0 mi Calm Calm - N/A   Clear
6:35 PM 78.8 °F - 69.8 °F 74% 30.03 in 10.0 mi Calm Calm - N/A   Clear
6:55 PM 77.0 °F - 71.6 °F 83% 30.03 in 10.0 mi Calm Calm - N/A   Clear
7:15 PM 77.0 °F - 73.4 °F 89% 30.03 in 10.0 mi Calm Calm - N/A   Clear
7:35 PM 75.2 °F - 71.6 °F 89% 30.04 in 10.0 mi Calm Calm - N/A   Clear
7:55 PM 75.2 °F - 71.6 °F 89% 30.03 in 10.0 mi Calm Calm - N/A   Clear
8:15 PM 75.2 °F - 71.6 °F 89% 30.03 in 10.0 mi SSW 5.8 mph - N/A   Clear
8:35 PM 73.4 °F - 69.8 °F 88% 30.04 in 10.0 mi SSW 3.5 mph - N/A   Clear
8:55 PM 73.4 °F - 71.6 °F 94% 30.04 in 10.0 mi Calm Calm - N/A   Clear
9:15 PM 73.4 °F - 71.6 °F 94% 30.05 in 10.0 mi Calm Calm - N/A   Clear
9:35 PM 73.4 °F - 71.6 °F 94% 30.05 in 10.0 mi Calm Calm - N/A   Scattered Clouds
9:55 PM 71.6 °F - 71.6 °F 100% 30.06 in 10.0 mi Calm Calm - N/A   Scattered Clouds
10:15 PM 71.6 °F - 71.6 °F 100% 30.06 in 10.0 mi Calm Calm - N/A   Clear
10:35 PM 71.6 °F - 71.6 °F 100% 30.07 in 10.0 mi Calm Calm - N/A   Clear
10:55 PM 71.6 °F - 71.6 °F 100% 30.07 in 10.0 mi Calm Calm - N/A   Clear
11:15 PM 71.6 °F - 71.6 °F 100% 30.07 in 10.0 mi Calm Calm - N/A   Clear
11:35 PM 71.6 °F - 71.6 °F 100% 30.07 in 10.0 mi Calm Calm - N/A   Clear
11:55 PM 71.6 °F - 71.6 °F 100% 30.07 in 10.0 mi Calm Calm - N/A   Clear